COSMOS 2251 DEB, 34019

Orbit data source: Space-Track

COSMOS 2251 DEB, 34019 is space debris in LEO originally from a launch on Wed, 16 Jun 1993 UTC launched from the Plesetsk Missile And Space Complex (PKMTR). The debris from Iridium 33, an American commercial communications satellite, has been tracked extensively since its accidental collision with the defunct Russian satellite Cosmos 2251 in 2009. This event, occurring at high speed in low Earth orbit (LEO), generated thousands of pieces of space debris, significantly increasing the risk of further collisions. The Iridium 33 debris cloud has impacted space traffic management and orbital debris mitigation strategies, making it a subject of ongoing study in space situational awareness.

Loading next visibility...
Identifier
34019, 1993-036HE
Orbit
LEO
Country
Flag of CISCIS
Related business
Manufacturer
Unknown
Mission
Spacecraft
Bus & Motor
Unknown
Mass
Unknown
Launch date (UTC)
1993-06-16 (33 years ago)
Launch vehicle
Unknown
Launch site
Plesetsk Missile And Space Complex (PKMTR)
Object type
Payload
Rocket body
Debris
Shape & HBR
Unknown shape, 0.1 m
Radar Cross Section
Medium (>0.1 m² and <1 m²)

Expand to show TLE details & history
Last TLE update: 2 days ago

TLE from 2 days ago
0 COSMOS 2251 DEB
1 34019U 93036HE  26171.44144000  .00001135  00000-0  40212-3 0  9994
2 34019  73.9528  61.6391 0061373 198.4168 339.1335 14.34632282902403
Epoch: 2026-06-20T10:35Z
TLE epoch observation values (Epoch: 2026-06-20T10:35:40.415Z)
Latitude
2.50122°
Longitude
173.34862°
Altitude
737.602 km
Speed
7.508 km/s
True Right ascension
16h 03m 41s
True Declination
2° 29' 10"
Sunlit
Object was in full shadow at epoch
Visualization orbit readout
Latitude
Unknown
Longitude
Unknown
Altitude
Unknown
Speed
Unknown
Apparent Right ascension
Unknown
Apparent Declination
Unknown
Sunlit
N/A
Visualization observer readout
Local Sidereal Time
06:13:23
Azimuth
Unknown
Elevation
Unknown
Doppler factor
Unknown
Orbital elements
Apogee altitude
817.815 km
Perigee altitude
730.027 km
Semi-major axis
7,152.058 km
Eccentricity
0.00614
Inclination
73.9528°
RAAN
61.6391°
Arg. of periapsis
198.4168°
True anomaly
338.88119°
Mean anomaly
339.1335°
Eccentric anomaly
339.00753°
Mean motion
3.58837 °/min
Orbital period
100.32 mins
BSTAR
0.00040212

Documentation

Showing up to 5 results
|